Weather in Mari-Otary

Russia / Mari El Republic     55°57′41″N   48°14′06″E
temp.,
°C
wind,
m/s
gust,
m/s
humid.,
%
clouds,
%
prec.,
mm/h
press.,
hPa
HPBL,
m
19 january, wed
wed1900:000ssw61296100 0.5 1007647
03:00−3wnw3597100 1.8 1009351
06:00−5nw359697 0.8 1010229
09:00−6nw249685 1.3 1012227
12:00−6nw3391100 0.4 1013346
15:00−7nw2396100 0.9 1014256
18:00−9nw2496100 0.3 1015117
21:00−18wnw2210064 0.3 101610
20 january, thu
thu2000:00−21s1110074 0.0 10179
03:00−22ssw2210059 0.0 101813
06:00−22s2210042 0.0 101816
09:00−16s3899100 0.0 1017151
12:00−9s41193100 0.0 1017330
15:00−9s4119173 0.0 1017343
18:00−11s4129377 0.0 1017258
21:00−12s4129537 0.0 1017218
21 january, fri
fri2100:00−12s4129420 0.0 1017223
03:00−13s3109536 0.0 1018178
06:00−14sse4109756 0.0 1018176
09:00−15sse4119773 0.0 1019201
12:00−11sse4129344 0.0 1019295
15:00−10se4119371 0.0 1019302
18:00−12se5119579 0.0 1019258
21:00−13se4119586 0.0 1019257
22 january, sat
sat2200:00−13se5129685 0.0 1019279
03:00−11se51394100 0.1 1018401
06:00−9se61392100 0.1 1018440
09:00−9se51293100 0.1 1020464
12:00−7se51194100 0.6 1020484
15:00−7se4995100 1.5 1021485
18:00−7ese4895100 1.1 1022396
21:00−8se3895100 1.6 1024280
23 january, sun
sun2300:00−9ese379699 0.1 1025186
03:00−8ese3896100 0.5 1025277
06:00−7ese4996100 1.1 1025359
09:00−5se51195100 2.3 1026534
12:00−4sse51195100 0.8 1027531
15:00−4sse51095100 1.3 1029490
18:00−6sse41095100 0.4 1031389
21:00−6sse3796100 0.9 1032304